Location: Hiekkapohja
(62.3333°N, 25.7833°E)
Time: 00:53:39
(UTC+00:00)

Meteor 1-24 Rocket - Pass Details

Date: 07 August 2020
Orbit: 789 x 928 km, 81.3° (Epoch: 20 September)

Event Time Altitude Azimuth Distance (km) Brightness Sun altitude
Rises 00:10:28 0° 341° (NNW) 3,453 7.6 -8.5°
Reaches altitude 10° 00:12:56 10° 341° (NNW) 2,491 6.8 -8.4°
Maximum altitude 00:18:35 83° 254° (WSW) 842 3.7 -8.1°
Drops below altitude 10° 00:24:00 10° 168° (SSE) 2,393 5.6 -7.8°
Sets 00:26:20 0° 167° (SSE) 3,307 6.3 -7.6°
Enters shadow 00:26:22 - 167° (SSE) 3,322 6.4 -7.6°
